Temp
75 72 72 70 70 71 71 71 72 71 71 70 69 69 68 65 62 60 60 61 62 64 71 70 68 72 70 72 72 73 72 75 77 72 72 71 70 72 72 72 72 72 72 71 71 71 71 71 72 72 72 72 72 73 72 73 73 73 72 72 72 72 71 70 71 71 71 71 71 71 71 72 72 72
71 72 72 72 72 71 72 71 71 71 70 69 70 70 70 69 65 63 62 61 64 64 68 71 69 70 71 72 72 72 72 75 77 72 71 71 71 73 72 71 71 71 71 71 70 70 71 71 71 71 72 72 72 72 72 72 72 72 72 72 72 71 71 70 70 70 70 70 70 70 71 71 71 71
73 71 70 70 71 71 71 71 72 71 71 70 71 71 71 70 69 67 65 61 62 68 65 65 71 72 70 72 72 72 72 74 76 73 71 71 73 74 73 72 71 71 71 70 70 70 69 69 70 70 71 71 71 71 71 72 72 72 72 71 71 71 71 70 70 70 70 70 70 70 70 70 70 71
72 71 70 70 70 71 70 71 71 70 71 72 72 71 70 69 69 68 64 63 63 67 68 67 69 71 71 70 71 71 71 74 77 74 73 73 75 74 73 73 72 71 70 69 69 69 69 68 69 70 70 71 71 71 71 71 71 71 71 71 71 71 70 70 70 70 70 70 70 70 70 70 70 70
72 71 71 70 71 71 72 72 72 72 72 72 71 71 70 69 69 68 65 63 63 64 67 68 70 71 72 71 72 72 72 71 72 74 72 72 72 72 72 72 73 72 71 70 69 69 68 68 69 69 70 70 71 71 71 70 70 70 70 70 69 69 70 69 70 70 69 70 70 70 70 70 70 71
72 72 71 70 71 72 73 72 72 73 73 71 70 69 70 69 68 69 67 65 64 63 64 68 69 70 71 69 70 71 71 70 70 70 71 72 72 72 72 71 72 72 72 71 70 69 68 68 68 68 69 69 70 70 70 70 69 69 69 69 68 68 68 68 68 69 69 69 69 69 69 70 70 71
70 70 70 71 71 72 70 70 71 72 72 71 70 69 70 69 69 68 68 66 64 65 65 67 67 68 69 69 70 70 71 71 71 71 70 71 72 72 72 71 72 72 71 71 70 69 68 68 68 68 68 68 68 68 68 68 68 68 67 67 67 67 67 67 67 68 68 68 69 69 69 69 69 70
70 70 69 70 71 70 69 68 69 70 70 69 68 68 68 69 69 69 68 68 66 66 65 65 68 68 68 68 69 70 70 70 70 70 70 70 71 71 72 72 71 72 71 71 70 70 69 68 67 66 66 66 66 66 65 66 66 65 65 65 65 65 65 65 65 66 66 66 66 67 68 68 68 69
71 71 70 70 70 69 68 67 68 70 70 70 70 69 69 69 69 70 69 67 67 66 65 66 67 68 68 69 70 70 69 69 68 68 68 69 69 69 71 72 73 72 71 71 70 69 69 69 68 67 67 67 66 66 66 65 64 64 64 63 63 64 64 64 64 64 64 64 64 65 66 67 67 68
72 72 70 70 70 69 68 68 68 69 70 70 70 70 69 70 70 68 66 66 66 65 64 65 66 67 68 67 68 69 69 68 68 67 67 67 68 68 68 69 72 73 73 72 72 70 69 69 68 68 67 67 66 65 65 65 65 63 62 60 61 63 62 62 63 63 63 63 62 63 64 66 66 67
72 71 70 70 69 69 68 68 67 69 70 71 70 70 69 70 69 68 67 66 65 65 64 65 65 66 68 68 66 68 69 69 68 66 65 65 67 67 67 68 70 72 72 71 71 71 72 72 71 67 66 65 65 65 65 64 64 63 62 61 60 60 60 61 61 60 61 62 62 62 62 61 63 65
72 70 71 71 71 70 69 69 69 70 70 70 69 69 70 70 69 68 67 66 64 62 63 62 63 63 65 65 67 68 66 65 64 65 65 63 64 65 65 66 67 68 69 68 70 70 71 71 71 69 68 68 67 65 65 66 66 65 63 62 63 63 61 60 60 60 60 60 60 61 61 61 62 62
71 70 71 72 71 72 74 73 73 74 73 70 68 68 69 69 68 67 66 66 63 63 63 63 64 63 64 65 65 64 64 63 64 64 65 63 64 64 65 66 67 68 67 68 68 68 70 69 68 68 67 68 69 68 68 68 68 67 64 63 63 63 62 61 60 60 60 59 59 59 60 61 61 61
70 71 72 72 74 74 77 77 76 72 71 71 70 67 67 66 66 65 65 64 64 64 62 63 63 62 63 64 64 64 65 65 64 64 63 63 63 63 63 64 65 68 68 66 64 65 68 67 66 66 66 67 69 68 68 69 70 69 66 65 64 64 63 62 61 60 60 60 59 59 58 59 60 60
69 69 70 69 74 73 74 70 72 71 70 69 69 68 68 69 67 65 64 64 64 63 63 63 63 62 63 64 65 64 65 65 64 63 63 63 62 61 59 59 63 65 65 63 63 64 66 66 64 65 66 67 67 68 68 68 68 66 66 66 66 65 64 64 63 61 60 60 60 59 58 58 59 59
67 68 69 70 72 70 70 69 69 69 68 67 67 67 66 66 68 68 67 65 64 63 63 62 63 64 64 64 64 64 65 64 62 63 62 62 61 60 59 58 59 62 66 64 62 61 65 65 63 63 65 66 67 69 68 67 65 65 65 65 65 65 64 64 64 63 62 62 62 62 61 60 60 60
68 69 69 70 70 71 74 71 68 67 67 66 66 66 67 66 65 63 64 65 67 66 63 63 63 64 65 63 64 66 66 64 63 62 61 61 61 60 59 59 60 63 64 62 60 59 62 63 63 62 64 66 67 68 67 66 66 65 65 65 64 64 64 64 63 63 63 62 61 60 60 61 61 61
69 70 69 68 68 68 69 67 67 67 67 66 65 65 65 65 68 66 63 62 62 64 65 63 62 65 66 65 66 67 67 64 63 62 60 60 59 59 60 62 62 63 64 61 60 58 60 62 62 61 64 66 66 66 66 66 65 65 64 63 63 62 62 63 62 62 62 62 61 60 59 58 58 59
70 70 69 68 67 67 67 67 68 67 66 65 65 65 65 66 66 66 67 67 67 65 65 65 65 66 67 67 67 67 67 66 63 63 62 62 62 61 61 60 61 62 64 62 59 55 60 61 60 62 64 65 66 66 64 64 63 63 62 62 62 62 62 62 62 62 61 61 61 61 61 60 60 60
70 69 69 68 67 67 67 67 67 68 66 65 65 64 64 65 66 67 68 65 67 69 68 68 67 67 68 67 67 66 65 63 62 63 62 60 59 57 56 56 60 59 63 63 60 58 60 60 61 62 63 63 62 63 63 63 64 64 64 64 64 63 62 62 62 62 62 62 62 62 61 60 58 58
69 69 68 68 67 67 67 66 62 64 69 64 64 63 63 64 65 66 68 65 63 63 62 61 62 62 62 60 59 59 59 62 61 59 58 58 60 57 55 57 57 58 62 63 63 61 60 60 59 59 60 61 62 62 62 62 63 64 64 63 62 61 60 61 61 62 62 63 63 62 61 60 58 59
68 70 73 71 68 67 66 64 61 61 66 64 63 63 63 64 64 65 68 70 68 64 63 63 62 61 60 60 59 59 59 59 60 60 57 61 59 57 57 56 57 60 61 62 64 59 56 59 59 58 59 59 59 60 59 62 64 64 63 63 62 61 61 60 60 61 62 62 61 61 60 59 59 62
68 68 71 72 69 67 65 61 59 60 64 63 63 63 63 63 63 64 63 64 64 64 65 64 65 64 65 65 64 65 63 61 62 60 60 61 59 57 58 58 58 56 57 61 62 58 56 58 58 57 57 55 59 60 60 61 61 63 64 64 65 63 62 60 59 58 60 60 60 60 59 58 58 61
66 66 66 67 64 62 61 58 56 56 59 64 63 63 63 62 62 60 59 63 63 61 61 59 61 61 62 62 63 63 64 66 67 65 63 61 60 58 57 58 58 55 56 58 63 57 58 57 57 57 57 53 52 57 60 61 62 63 64 64 64 64 64 63 62 61 59 58 58 58 58 57 58 61
64 64 65 65 63 58 57 55 53 53 55 61 61 61 61 61 58 56 57 59 65 58 59 60 60 61 60 60 61 62 63 64 64 63 63 63 61 59 58 55 56 55 58 60 63 57 55 56 57 57 56 55 56 56 59 61 62 62 64 64 63 64 64 64 63 65 62 60 59 57 57 57 57 59
64 65 65 65 63 57 55 54 51 50 52 55 59 56 52 52 53 56 59 58 58 59 60 58 58 59 59 58 60 62 61 62 63 62 62 62 62 62 61 57 55 54 56 61 62 59 57 56 58 57 57 56 57 59 58 59 62 62 63 63 63 63 64 63 63 63 64 64 64 61 62 59 59 58
64 65 66 66 61 56 52 48 48 49 51 54 56 49 49 50 52 57 56 57 58 56 57 58 57 56 57 58 57 58 59 59 59 60 60 61 61 62 63 63 61 59 60 61 63 61 58 56 59 58 57 58 55 57 57 56 58 62 61 62 62 63 63 63 62 62 62 63 63 60 58 58 58 57
66 65 66 61 52 47 44 46 49 50 52 56 49 48 50 51 54 56 56 56 55 57 56 55 55 56 56 57 56 58 58 59 57 59 60 61 61 61 61 61 62 62 61 61 61 61 59 58 59 60 59 56 54 54 54 59 60 59 59 61 62 63 63 61 59 60 61 62 61 61 61 61 63 63
63 59 52 47 47 47 46 48 50 51 51 51 50 49 50 56 55 55 54 55 55 54 54 55 57 57 59 58 58 57 56 58 58 59 60 60 60 60 60 59 60 60 63 64 63 63 62 61 60 61 60 59 56 57 57 56 58 58 60 59 58 60 62 62 61 60 60 60 60 60 60 60 61 62
52 50 48 49 49 49 51 52 53 54 54 51 52 52 52 54 54 54 54 54 55 54 55 55 57 57 56 57 56 58 59 56 56 56 57 56 56 57 57 56 56 58 60 62 63 63 62 61 61 60 59 60 59 58 58 57 56 58 59 58 59 61 61 59 60 60 59 58 59 59 61 61 61 61
53 51 53 53 53 53 53 55 57 57 59 54 52 53 54 54 54 56 55 55 55 56 55 56 56 56 55 57 58 56 56 57 55 56 57 55 54 58 55 53 55 56 58 60 62 63 62 62 62 61 59 60 60 59 59 58 56 56 58 59 58 54 58 61 60 59 59 59 59 59 60 59 60 61
57 57 56 53 55 55 54 54 55 56 59 58 56 55 55 55 57 59 61 61 57 56 57 56 56 57 56 56 55 56 55 55 55 56 56 56 55 56 55 53 53 55 56 57 59 61 64 62 61 61 60 59 58 59 59 57 56 56 56 58 59 59 60 59 59 59 60 59 57 57 57 57 58 59
61 58 56 55 57 56 56 56 56 56 56 57 57 58 58 57 57 56 56 56 56 57 57 56 57 55 55 54 55 55 54 54 54 55 54 55 55 55 54 52 53 53 54 55 56 57 58 59 62 62 61 60 59 59 56 55 57 58 56 57 57 57 58 59 59 59 59 56 55 56 56 57 58 59
60 59 57 57 56 56 56 56 56 57 57 57 57 57 58 58 58 57 57 56 56 56 56 54 55 55 54 53 53 53 53 53 53 53 56 53 55 53 52 52 52 54 53 53 54 57 58 59 59 59 59 60 61 60 59 56 55 56 57 57 56 55 58 59 59 59 58 55 54 53 54 56 58 58
60 58 58 58 58 58 59 58 58 59 58 58 58 58 58 58 58 57 57 56 56 56 57 54 54 54 53 53 52 54 53 56 53 52 54 54 55 52 52 51 52 52 53 53 55 56 57 58 58 57 55 55 56 57 61 60 55 55 56 56 56 56 56 58 58 57 57 55 55 53 54 55 56 57
60 59 59 59 60 60 60 61 60 61 60 60 60 59 59 57 57 58 56 55 55 54 54 54 54 53 52 52 53 53 52 53 52 52 53 52 53 52 51 52 53 52 53 53 54 56 57 57 57 55 52 52 52 52 56 62 61 57 55 54 55 56 57 57 57 57 55 54 55 53 52 52 53 55
61 60 60 60 60 61 60 60 59 59 61 59 58 57 56 56 56 55 55 53 55 54 53 53 52 53 53 53 53 53 53 53 52 52 52 51 53 52 50 52 53 53 53 54 55 56 56 55 56 54 53 52 51 50 53 58 58 59 56 54 54 55 55 55 55 54 55 55 54 54 53 52 52 54
61 59 59 60 61 61 60 61 61 59 59 59 58 58 58 56 57 56 54 54 54 54 54 54 54 52 52 53 52 51 51 52 51 50 51 52 50 51 50 50 52 53 53 54 55 55 55 54 54 53 52 51 50 51 51 56 56 57 58 56 54 54 55 53 52 52 53 55 53 54 53 51 52 53
59 58 59 59 59 60 59 59 59 58 58 58 58 58 57 57 56 54 54 53 54 53 52 52 52 53 53 51 52 52 52 50 49 50 53 51 50 50 51 52 52 53 52 52 53 54 54 52 54 53 52 52 51 52 53 52 53 57 57 54 54 53 53 52 51 52 52 52 53 54 54 55 56 58
58 59 58 59 59 59 57 59 57 58 58 57 56 56 56 55 54 54 53 53 52 53 53 54 53 51 50 51 52 51 51 51 51 51 51 50 51 52 53 53 52 52 51 51 52 53 53 53 55 54 53 55 55 56 56 56 56 56 55 56 53 53 53 52 51 50 50 52 52 50 50 51 50 53
58 58 59 58 57 57 57 57 57 57 57 56 56 56 54 54 53 52 52 53 54 53 53 50 50 51 51 51 52 51 51 50 51 51 52 51 53 53 54 54 51 51 50 51 52 52 53 55 60 62 62 58 57 57 54 52 51 52 53 55 54 54 53 54 52 51 50 52 50 49 48 47 48 49
60 58 58 58 59 59 56 56 56 58 57 55 54 54 56 55 54 58 55 56 53 53 51 51 50 51 51 51 51 52 51 50 50 50 52 52 52 52 53 51 51 52 50 51 52 53 55 57 60 59 58 57 55 53 50 51 50 51 53 54 55 54 54 54 55 55 53 51 49 47 47 47 48 48
59 59 59 59 58 57 56 57 57 55 55 54 54 55 54 56 52 52 53 53 50 51 51 51 51 50 49 51 50 51 51 50 51 51 52 52 51 50 50 51 50 52 52 53 53 53 55 57 57 56 55 53 53 54 51 52 51 52 53 52 52 54 55 56 55 55 55 55 53 50 49 47 45 43
60 61 58 58 57 57 57 56 56 56 57 55 54 54 53 51 51 52 52 52 51 50 50 50 49 52 52 51 52 51 51 51 51 52 52 51 51 51 50 51 52 52 53 52 52 53 55 56 56 55 53 52 52 52 51 52 51 52 52 52 52 51 51 53 55 55 54 54 53 53 53 52 52 51
59 59 58 58 58 58 57 57 56 56 55 55 54 53 54 52 52 52 52 52 51 51 53 53 53 52 50 52 50 50 50 53 51 50 50 51 52 52 51 52 52 52 52 52 51 52 54 54 56 54 53 54 54 53 54 54 53 53 53 52 50 49 50 51 50 49 49 49 52 53 52 52 52 52
MSLP
1017.58 1017.66 1017.66 1017.78 1017.90 1017.90 1017.86 1017.98 1018.14 1018.30 1018.42 1018.58 1018.74 1018.98 1019.58 1020.10 1020.98 1021.66 1021.70 1021.18 1020.94 1019.90 1019.38 1019.94 1018.94 1018.46 1018.46 1018.54 1018.42 1018.54 1018.54 1018.46 1018.38 1018.46 1018.58 1018.70 1018.74 1018.66 1018.66 1018.66 1018.70 1018.70 1018.70 1018.70 1018.74 1018.78 1018.78 1018.82 1018.82 1018.82 1018.78 1018.74 1018.74 1018.70 1018.70 1018.70 1018.70 1018.74 1018.74 1018.74 1018.70 1018.70 1018.66 1018.70 1018.66 1018.66 1018.70 1018.66 1018.66 1018.62 1018.58 1018.50 1018.46 1018.46
1017.42 1017.46 1017.42 1017.46 1017.66 1017.66 1017.78 1017.86 1017.86 1017.98 1018.18 1018.38 1018.54 1018.74 1018.90 1019.18 1020.18 1020.62 1021.26 1021.10 1020.22 1020.02 1019.34 1019.18 1019.26 1018.54 1018.54 1018.42 1018.46 1018.38 1018.38 1018.22 1018.22 1018.30 1018.34 1018.46 1018.46 1018.38 1018.38 1018.34 1018.38 1018.38 1018.38 1018.38 1018.42 1018.46 1018.50 1018.54 1018.58 1018.58 1018.54 1018.54 1018.50 1018.46 1018.46 1018.46 1018.46 1018.42 1018.42 1018.42 1018.42 1018.42 1018.46 1018.46 1018.46 1018.42 1018.42 1018.42 1018.42 1018.38 1018.34 1018.30 1018.26 1018.26
1017.18 1017.38 1017.54 1017.46 1017.58 1017.46 1017.62 1017.66 1017.66 1017.62 1017.82 1018.02 1018.18 1018.42 1018.58 1018.90 1019.30 1019.86 1020.26 1021.02 1019.90 1019.34 1019.78 1019.14 1018.66 1018.78 1018.54 1018.34 1018.38 1018.38 1018.34 1018.22 1018.14 1018.14 1018.14 1018.14 1018.06 1018.06 1017.98 1017.94 1017.94 1018.02 1018.06 1018.10 1018.10 1018.10 1018.14 1018.22 1018.26 1018.30 1018.26 1018.22 1018.22 1018.18 1018.18 1018.18 1018.18 1018.18 1018.14 1018.14 1018.14 1018.10 1018.10 1018.10 1018.14 1018.14 1018.10 1018.10 1018.10 1018.10 1018.06 1018.02 1017.98 1017.98
1016.98 1017.18 1017.46 1017.46 1017.42 1017.30 1017.34 1017.42 1017.42 1017.50 1017.50 1017.62 1017.94 1018.18 1018.42 1018.62 1018.82 1019.22 1019.86 1020.26 1020.30 1019.26 1019.18 1019.06 1018.74 1018.42 1018.42 1018.26 1018.42 1018.34 1018.22 1017.98 1017.90 1017.94 1017.90 1017.86 1017.78 1017.78 1017.74 1017.62 1017.58 1017.58 1017.70 1017.74 1017.78 1017.78 1017.82 1017.86 1017.86 1017.86 1017.86 1017.86 1017.90 1017.90 1017.86 1017.86 1017.86 1017.82 1017.82 1017.82 1017.82 1017.78 1017.74 1017.74 1017.74 1017.78 1017.78 1017.74 1017.70 1017.70 1017.70 1017.66 1017.66 1017.66
1016.82 1016.98 1017.18 1017.26 1017.14 1017.02 1017.18 1017.18 1017.14 1017.22 1017.38 1017.46 1017.62 1017.78 1018.06 1018.46 1018.62 1019.06 1019.54 1020.02 1020.02 1019.42 1018.70 1018.74 1018.70 1018.34 1018.30 1018.50 1018.26 1018.38 1018.26 1018.14 1017.98 1017.90 1017.86 1017.78 1017.78 1017.70 1017.66 1017.54 1017.42 1017.38 1017.34 1017.30 1017.34 1017.42 1017.50 1017.50 1017.50 1017.46 1017.46 1017.50 1017.54 1017.54 1017.54 1017.54 1017.54 1017.50 1017.46 1017.46 1017.46 1017.46 1017.42 1017.42 1017.38 1017.34 1017.34 1017.34 1017.34 1017.30 1017.30 1017.30 1017.26 1017.22
1016.66 1016.78 1017.02 1017.02 1016.86 1016.74 1016.90 1016.94 1017.06 1017.06 1017.18 1017.30 1017.58 1017.74 1017.94 1018.22 1018.42 1018.42 1019.06 1019.42 1019.66 1019.74 1019.02 1018.82 1018.38 1018.46 1018.22 1018.74 1018.14 1018.42 1018.38 1018.22 1017.98 1018.02 1017.90 1017.74 1017.62 1017.58 1017.46 1017.42 1017.30 1017.18 1017.14 1017.06 1017.02 1017.02 1017.02 1017.06 1017.06 1017.10 1017.10 1017.10 1017.10 1017.10 1017.14 1017.10 1017.10 1017.10 1017.10 1017.06 1017.06 1017.06 1017.06 1017.06 1017.02 1016.98 1016.94 1016.94 1016.98 1016.98 1016.94 1016.94 1016.94 1016.86
1016.50 1016.66 1016.74 1016.74 1016.62 1016.66 1016.86 1016.94 1016.94 1016.98 1017.22 1017.26 1017.46 1017.62 1017.66 1018.02 1018.14 1018.26 1018.38 1018.94 1019.38 1019.34 1019.14 1018.58 1018.62 1018.46 1018.30 1018.42 1018.26 1018.06 1018.02 1017.94 1017.90 1018.02 1017.90 1017.74 1017.50 1017.30 1017.22 1017.18 1016.98 1016.82 1016.74 1016.74 1016.74 1016.74 1016.74 1016.70 1016.66 1016.66 1016.62 1016.62 1016.62 1016.62 1016.62 1016.66 1016.66 1016.70 1016.70 1016.70 1016.70 1016.70 1016.66 1016.66 1016.66 1016.62 1016.58 1016.58 1016.58 1016.62 1016.62 1016.58 1016.58 1016.58
1016.34 1016.38 1016.54 1016.54 1016.50 1016.58 1016.82 1016.98 1017.06 1017.06 1017.18 1017.34 1017.50 1017.58 1017.62 1017.70 1017.86 1017.90 1018.06 1018.22 1018.54 1018.70 1019.02 1018.54 1018.50 1018.22 1018.30 1018.10 1017.86 1017.82 1017.82 1017.94 1017.94 1017.86 1017.66 1017.46 1017.42 1017.22 1017.02 1016.94 1016.86 1016.62 1016.50 1016.46 1016.46 1016.42 1016.38 1016.34 1016.34 1016.30 1016.22 1016.22 1016.22 1016.22 1016.22 1016.22 1016.26 1016.26 1016.26 1016.30 1016.30 1016.30 1016.26 1016.26 1016.22 1016.22 1016.22 1016.22 1016.18 1016.18 1016.22 1016.18 1016.18 1016.18
1015.90 1016.02 1016.22 1016.34 1016.42 1016.54 1016.86 1016.98 1017.06 1017.14 1017.38 1017.30 1017.46 1017.66 1017.66 1017.62 1017.50 1017.58 1017.78 1018.02 1018.18 1018.58 1018.86 1018.62 1018.10 1017.98 1018.02 1017.82 1017.70 1017.62 1017.98 1017.82 1017.74 1017.58 1017.62 1017.42 1017.26 1017.14 1016.90 1016.74 1016.54 1016.38 1016.30 1016.22 1016.22 1016.18 1016.10 1016.02 1015.98 1015.94 1015.90 1015.82 1015.82 1015.78 1015.78 1015.82 1015.86 1015.86 1015.86 1015.86 1015.86 1015.82 1015.82 1015.82 1015.78 1015.82 1015.82 1015.78 1015.78 1015.74 1015.78 1015.78 1015.78 1015.82
1015.50 1015.70 1015.98 1016.14 1016.26 1016.50 1016.78 1016.94 1017.02 1017.14 1017.26 1017.26 1017.34 1017.50 1017.58 1017.54 1017.42 1017.46 1017.74 1017.86 1018.22 1018.42 1018.46 1018.58 1018.54 1018.14 1018.26 1018.06 1017.82 1017.54 1017.58 1017.86 1017.86 1017.62 1017.38 1017.22 1017.06 1017.06 1017.02 1016.74 1016.42 1016.22 1016.10 1016.10 1015.98 1015.90 1015.86 1015.74 1015.62 1015.58 1015.54 1015.58 1015.58 1015.54 1015.46 1015.42 1015.42 1015.42 1015.46 1015.42 1015.42 1015.38 1015.38 1015.34 1015.34 1015.34 1015.34 1015.34 1015.34 1015.38 1015.38 1015.34 1015.34 1015.34
1015.38 1015.62 1015.82 1015.98 1016.10 1016.38 1016.54 1016.74 1016.90 1016.98 1017.10 1017.14 1017.18 1017.22 1017.34 1017.38 1017.42 1017.42 1017.50 1017.70 1018.06 1018.22 1018.42 1018.50 1018.46 1018.42 1017.94 1017.90 1018.06 1017.46 1017.26 1017.34 1017.46 1017.66 1017.62 1017.50 1016.94 1016.82 1016.78 1016.70 1016.26 1016.02 1015.94 1015.78 1015.66 1015.62 1015.54 1015.38 1015.26 1015.22 1015.22 1015.22 1015.18 1015.10 1015.06 1015.02 1015.02 1015.02 1015.02 1015.02 1015.02 1014.98 1014.94 1014.90 1014.90 1014.90 1014.86 1014.90 1014.90 1014.94 1014.94 1014.94 1014.98 1015.02
1015.34 1015.54 1015.70 1015.86 1016.02 1016.18 1016.34 1016.50 1016.66 1016.74 1016.94 1016.94 1017.10 1016.98 1017.06 1017.18 1017.34 1017.34 1017.26 1017.54 1017.90 1018.22 1018.42 1018.50 1018.38 1018.14 1018.02 1017.74 1017.50 1017.30 1017.34 1017.54 1017.46 1017.30 1017.46 1017.62 1017.26 1016.94 1016.74 1016.58 1016.58 1016.18 1015.98 1015.98 1015.70 1015.46 1015.26 1015.14 1015.02 1014.98 1014.94 1014.86 1014.78 1014.70 1014.66 1014.70 1014.70 1014.62 1014.62 1014.58 1014.54 1014.50 1014.50 1014.46 1014.46 1014.42 1014.46 1014.42 1014.42 1014.46 1014.50 1014.54 1014.54 1014.54
1015.26 1015.46 1015.58 1015.78 1015.98 1016.02 1016.06 1016.18 1016.34 1016.46 1016.62 1016.90 1017.14 1017.06 1016.98 1017.14 1017.22 1017.34 1017.38 1017.46 1017.70 1017.98 1018.14 1018.18 1018.06 1018.14 1018.02 1017.82 1017.70 1017.62 1017.54 1017.54 1017.46 1017.06 1017.02 1017.18 1017.02 1016.90 1016.82 1016.42 1016.06 1015.94 1015.98 1015.78 1015.70 1015.58 1015.34 1015.26 1015.14 1015.06 1015.02 1014.82 1014.62 1014.50 1014.42 1014.34 1014.22 1014.18 1014.22 1014.22 1014.18 1014.10 1014.06 1014.06 1014.02 1013.98 1013.94 1013.90 1013.94 1013.98 1013.94 1013.90 1013.90 1013.98
1015.38 1015.46 1015.62 1015.82 1016.14 1016.18 1016.06 1016.02 1016.10 1016.34 1016.46 1016.54 1016.62 1016.86 1016.94 1017.10 1017.30 1017.46 1017.50 1017.50 1017.62 1017.86 1018.10 1018.06 1018.02 1018.14 1017.98 1017.66 1017.46 1017.38 1017.06 1016.86 1016.78 1016.90 1016.94 1017.22 1017.02 1016.90 1016.86 1016.54 1016.10 1015.62 1015.70 1015.82 1015.90 1015.66 1015.34 1015.30 1015.22 1015.14 1015.06 1014.74 1014.58 1014.42 1014.26 1014.06 1013.90 1013.82 1013.74 1013.70 1013.62 1013.58 1013.54 1013.54 1013.50 1013.46 1013.38 1013.34 1013.34 1013.34 1013.34 1013.38 1013.46 1013.54
1015.42 1015.62 1015.82 1015.94 1015.98 1015.94 1015.94 1015.94 1016.06 1016.26 1016.38 1016.46 1016.46 1016.42 1016.42 1016.46 1016.70 1017.06 1017.26 1017.30 1017.38 1017.62 1017.78 1017.70 1017.78 1017.74 1017.62 1017.26 1017.06 1017.02 1016.86 1016.70 1016.70 1016.82 1016.86 1016.94 1016.98 1017.14 1017.26 1017.18 1016.10 1015.50 1015.54 1015.78 1015.86 1015.58 1015.18 1015.14 1015.22 1015.06 1014.90 1014.54 1014.34 1014.06 1013.86 1013.62 1013.54 1013.46 1013.38 1013.30 1013.22 1013.14 1013.10 1013.02 1012.98 1012.98 1012.98 1012.98 1012.98 1012.98 1012.98 1013.02 1013.02 1013.06
1015.30 1015.58 1015.78 1015.82 1015.74 1015.74 1015.74 1015.86 1016.02 1016.18 1016.22 1016.22 1016.22 1016.22 1016.30 1016.34 1016.38 1016.46 1016.70 1016.90 1017.18 1017.34 1017.58 1017.62 1017.46 1017.34 1017.22 1017.10 1017.06 1016.98 1016.82 1016.70 1016.62 1016.58 1016.62 1016.74 1016.86 1016.98 1017.06 1016.90 1016.82 1015.82 1015.58 1015.82 1015.82 1015.46 1015.06 1014.90 1014.98 1014.98 1014.66 1014.26 1013.94 1013.62 1013.38 1013.26 1013.22 1013.18 1013.10 1012.98 1012.86 1012.74 1012.70 1012.74 1012.70 1012.62 1012.54 1012.46 1012.42 1012.42 1012.42 1012.46 1012.46 1012.46
1014.90 1015.26 1015.50 1015.54 1015.58 1015.54 1015.62 1015.78 1015.94 1016.06 1016.14 1016.10 1016.10 1016.14 1016.18 1016.22 1016.26 1016.30 1016.30 1016.30 1016.42 1016.62 1017.06 1017.18 1017.10 1016.94 1016.82 1017.02 1016.78 1016.50 1016.38 1016.22 1016.50 1016.50 1016.58 1016.50 1016.58 1016.62 1016.74 1016.62 1016.38 1015.90 1015.62 1015.78 1015.78 1015.50 1014.98 1014.94 1014.82 1014.78 1014.22 1013.90 1013.58 1013.26 1013.06 1012.98 1012.90 1012.82 1012.74 1012.62 1012.54 1012.54 1012.50 1012.38 1012.34 1012.30 1012.26 1012.18 1012.10 1012.06 1012.02 1011.98 1011.94 1011.90
1014.78 1014.82 1015.18 1015.38 1015.54 1015.50 1015.62 1015.78 1015.90 1015.94 1015.98 1016.06 1016.22 1016.26 1016.18 1016.02 1015.90 1015.94 1015.98 1016.10 1016.14 1016.26 1016.46 1016.66 1016.78 1016.30 1016.26 1016.42 1016.10 1015.86 1015.82 1016.14 1016.34 1016.38 1016.42 1016.34 1016.46 1016.50 1016.42 1016.06 1015.94 1015.50 1015.34 1015.62 1015.42 1015.22 1014.90 1014.66 1014.46 1014.30 1013.74 1013.38 1013.14 1012.98 1012.78 1012.66 1012.54 1012.46 1012.38 1012.34 1012.30 1012.26 1012.18 1012.10 1012.02 1011.94 1011.82 1011.74 1011.66 1011.62 1011.58 1011.54 1011.42 1011.26
1014.22 1014.54 1014.90 1015.10 1015.30 1015.50 1015.70 1015.82 1015.82 1015.94 1015.98 1016.10 1016.18 1016.22 1016.14 1016.02 1015.90 1015.78 1015.70 1015.70 1015.74 1016.02 1016.14 1016.10 1015.98 1015.82 1015.62 1015.58 1015.46 1015.50 1015.54 1015.62 1015.74 1015.86 1015.98 1015.98 1015.94 1015.90 1015.78 1015.78 1015.50 1015.34 1014.98 1015.02 1015.30 1015.14 1014.26 1014.02 1013.98 1013.70 1013.38 1013.06 1012.94 1012.70 1012.62 1012.58 1012.50 1012.38 1012.26 1012.14 1012.06 1012.02 1011.98 1011.90 1011.78 1011.62 1011.50 1011.34 1011.22 1011.10 1010.94 1010.74 1010.62 1010.50
1014.06 1014.34 1014.74 1015.06 1015.30 1015.42 1015.54 1015.54 1015.62 1015.70 1015.82 1016.02 1016.10 1016.14 1015.94 1015.82 1015.66 1015.58 1015.38 1015.34 1015.38 1015.50 1015.50 1015.46 1015.38 1015.30 1015.26 1015.22 1015.26 1015.18 1015.26 1015.38 1015.42 1015.50 1015.62 1015.74 1015.82 1015.94 1016.06 1016.02 1015.54 1015.54 1014.82 1014.66 1014.82 1014.54 1013.98 1013.70 1013.70 1013.46 1013.22 1013.14 1013.14 1012.82 1012.66 1012.46 1012.30 1012.18 1012.02 1011.94 1011.82 1011.70 1011.58 1011.42 1011.22 1011.10 1010.94 1010.78 1010.62 1010.46 1010.30 1010.14 1010.02 1009.90
1013.98 1014.30 1014.62 1014.86 1015.06 1015.18 1015.34 1015.34 1015.50 1015.62 1015.66 1015.94 1016.02 1015.98 1015.90 1015.74 1015.66 1015.54 1015.22 1015.10 1015.10 1015.10 1015.18 1015.22 1015.22 1015.10 1015.02 1015.02 1015.06 1015.06 1015.06 1015.18 1015.30 1015.54 1015.74 1015.70 1015.54 1015.86 1015.98 1015.66 1015.50 1015.18 1014.74 1014.26 1014.14 1014.14 1014.02 1013.74 1013.74 1013.58 1013.34 1013.18 1013.06 1012.82 1012.62 1012.38 1012.18 1012.02 1011.86 1011.74 1011.58 1011.42 1011.26 1011.02 1010.86 1010.70 1010.50 1010.30 1010.10 1009.86 1009.70 1009.58 1009.46 1009.30
1014.02 1014.22 1014.38 1014.50 1014.78 1015.06 1015.14 1015.10 1015.30 1015.42 1015.54 1015.86 1015.98 1015.98 1015.94 1015.82 1015.70 1015.46 1015.14 1015.02 1015.06 1014.98 1014.86 1014.90 1015.02 1015.06 1015.02 1015.02 1015.02 1015.02 1015.02 1014.94 1014.94 1015.30 1015.66 1015.30 1015.38 1015.74 1015.74 1015.66 1015.34 1014.98 1014.78 1014.38 1014.06 1014.34 1014.26 1013.94 1013.82 1013.62 1013.10 1012.98 1012.74 1012.62 1012.46 1012.22 1011.90 1011.70 1011.54 1011.38 1011.22 1011.02 1010.78 1010.62 1010.42 1010.22 1010.02 1009.78 1009.58 1009.38 1009.26 1009.10 1009.02 1008.82
1013.98 1014.18 1014.18 1014.30 1014.54 1014.74 1014.78 1014.94 1015.18 1015.38 1015.54 1015.70 1015.74 1015.70 1015.74 1015.70 1015.58 1015.38 1015.34 1015.34 1015.26 1015.10 1014.98 1014.90 1014.86 1014.90 1014.86 1014.82 1014.78 1014.74 1014.66 1014.70 1014.78 1015.02 1015.14 1015.14 1015.42 1015.58 1015.50 1015.46 1015.38 1015.34 1014.90 1014.30 1014.10 1014.46 1014.18 1014.14 1013.78 1013.78 1013.26 1012.90 1012.42 1012.42 1012.14 1011.94 1011.70 1011.46 1011.26 1011.06 1010.82 1010.54 1010.34 1010.18 1009.98 1009.74 1009.50 1009.26 1009.02 1008.86 1008.70 1008.54 1008.54 1008.26
1014.06 1014.14 1014.30 1014.30 1014.30 1014.42 1014.66 1014.90 1015.06 1015.18 1015.34 1015.42 1015.42 1015.46 1015.54 1015.50 1015.38 1015.34 1015.42 1015.26 1015.22 1015.26 1015.22 1015.22 1015.10 1015.06 1014.90 1014.82 1014.74 1014.70 1014.62 1014.54 1014.46 1014.50 1014.66 1014.90 1015.18 1015.42 1015.50 1015.42 1015.34 1015.30 1014.86 1014.30 1014.14 1014.46 1014.10 1014.02 1013.78 1013.70 1013.74 1013.58 1012.78 1012.18 1011.98 1011.74 1011.38 1011.10 1010.90 1010.74 1010.54 1010.14 1009.86 1009.62 1009.38 1009.10 1008.82 1008.62 1008.38 1008.22 1008.10 1007.94 1007.94 1007.74
1013.98 1014.18 1014.18 1014.14 1014.18 1014.34 1014.50 1014.70 1014.90 1015.14 1015.30 1015.34 1015.34 1015.30 1015.18 1015.06 1015.22 1015.42 1015.38 1015.34 1015.26 1015.34 1015.26 1015.18 1015.10 1015.02 1014.90 1014.82 1014.74 1014.66 1014.58 1014.54 1014.54 1014.66 1014.70 1014.78 1014.90 1015.02 1015.06 1014.98 1014.94 1014.86 1014.46 1014.10 1013.94 1014.14 1014.06 1013.78 1013.62 1013.34 1013.22 1013.14 1012.66 1012.34 1011.70 1011.38 1010.94 1010.78 1010.50 1010.34 1010.18 1009.74 1009.46 1009.18 1008.86 1008.54 1008.22 1007.98 1007.78 1007.62 1007.42 1007.30 1007.14 1007.10
1013.82 1013.90 1013.98 1014.02 1013.94 1014.10 1014.34 1014.62 1014.98 1015.22 1015.30 1015.30 1015.26 1015.18 1015.14 1015.26 1015.38 1015.34 1015.34 1015.34 1015.30 1015.30 1015.26 1015.18 1015.14 1015.02 1014.94 1014.90 1014.86 1014.82 1014.78 1014.78 1014.74 1014.70 1014.66 1014.58 1014.58 1014.50 1014.50 1014.50 1014.58 1014.54 1014.14 1013.58 1013.50 1013.66 1013.74 1013.62 1013.34 1013.22 1012.94 1012.82 1012.30 1012.14 1011.74 1011.18 1010.58 1010.30 1010.10 1009.90 1009.74 1009.38 1009.06 1008.70 1008.42 1008.10 1007.78 1007.46 1007.18 1006.98 1006.70 1006.46 1006.26 1006.02
1013.46 1013.42 1013.54 1013.54 1013.66 1013.90 1014.30 1014.74 1015.06 1015.14 1015.18 1015.22 1015.10 1015.10 1015.14 1015.22 1015.30 1015.34 1015.34 1015.30 1015.30 1015.30 1015.26 1015.22 1015.18 1015.10 1015.02 1015.06 1014.98 1014.82 1014.74 1014.66 1014.54 1014.50 1014.42 1014.30 1014.18 1014.02 1013.86 1013.74 1013.78 1013.86 1013.62 1013.42 1013.30 1013.30 1013.46 1013.34 1012.86 1012.94 1012.74 1012.46 1012.34 1011.90 1011.78 1011.42 1010.42 1009.82 1009.78 1009.50 1009.18 1008.82 1008.50 1008.26 1008.02 1007.62 1007.26 1006.98 1006.62 1006.30 1006.02 1005.78 1005.46 1005.14
1012.98 1013.14 1013.22 1013.38 1013.74 1014.10 1014.50 1014.74 1014.86 1014.90 1014.94 1014.78 1014.74 1014.90 1015.02 1015.22 1015.34 1015.30 1015.26 1015.26 1015.26 1015.22 1015.22 1015.22 1015.18 1015.10 1014.94 1014.78 1014.66 1014.54 1014.46 1014.42 1014.34 1014.22 1014.02 1013.98 1013.94 1013.90 1013.78 1013.66 1013.58 1013.46 1013.38 1013.26 1013.06 1012.94 1012.98 1012.98 1012.62 1012.30 1012.30 1012.34 1012.26 1012.02 1011.54 1010.74 1010.30 1009.86 1009.54 1008.98 1008.70 1008.26 1007.94 1007.82 1007.58 1007.14 1006.70 1006.38 1006.10 1005.78 1005.50 1005.06 1004.62 1004.34
1012.82 1012.94 1013.14 1013.58 1013.94 1014.22 1014.42 1014.54 1014.74 1014.86 1014.74 1014.66 1014.78 1014.98 1015.14 1015.22 1015.18 1015.18 1015.22 1015.22 1015.18 1015.22 1015.10 1014.94 1014.86 1014.70 1014.50 1014.42 1014.30 1014.26 1014.30 1014.18 1014.02 1013.98 1013.98 1013.90 1013.86 1013.78 1013.66 1013.54 1013.46 1013.30 1013.14 1012.86 1012.70 1012.58 1012.46 1012.42 1012.26 1011.90 1011.82 1011.66 1011.66 1011.26 1011.06 1010.54 1010.06 1009.54 1009.14 1008.78 1008.30 1007.78 1007.50 1007.26 1007.02 1006.74 1006.34 1006.02 1005.66 1005.30 1004.90 1004.50 1003.98 1003.62
1013.10 1013.34 1013.62 1013.90 1014.14 1014.42 1014.62 1014.86 1014.82 1014.50 1014.38 1014.50 1014.66 1014.90 1015.14 1015.10 1015.02 1014.98 1014.98 1015.02 1015.06 1015.10 1015.02 1014.94 1014.82 1014.58 1014.38 1014.22 1014.18 1014.18 1014.14 1014.14 1014.14 1014.10 1014.02 1013.98 1013.86 1013.78 1013.70 1013.54 1013.34 1013.18 1012.94 1012.66 1012.42 1012.22 1012.02 1011.86 1011.74 1011.54 1011.42 1011.18 1011.02 1010.82 1010.46 1010.22 1009.70 1009.22 1008.78 1008.58 1007.90 1007.18 1006.98 1006.98 1006.74 1006.50 1006.30 1005.78 1005.22 1004.78 1004.14 1003.82 1003.38 1003.06
1013.54 1013.86 1013.90 1013.94 1014.10 1014.30 1014.42 1014.18 1014.02 1014.06 1014.26 1014.46 1014.82 1015.02 1014.98 1014.90 1014.78 1014.66 1014.62 1014.62 1014.74 1014.82 1014.90 1014.78 1014.66 1014.58 1014.38 1014.22 1014.22 1014.22 1014.18 1014.18 1014.10 1014.06 1013.98 1013.98 1013.86 1013.74 1013.62 1013.62 1013.42 1013.10 1012.70 1012.42 1012.14 1011.86 1011.62 1011.42 1011.22 1011.10 1011.10 1010.74 1010.50 1010.38 1010.02 1009.82 1009.54 1009.02 1008.54 1008.14 1007.86 1007.70 1006.34 1006.22 1006.18 1005.98 1005.70 1005.22 1004.58 1003.98 1003.46 1002.98 1002.50 1002.10
1013.54 1013.74 1014.10 1014.42 1014.54 1014.54 1014.50 1014.38 1014.26 1014.14 1014.10 1014.14 1014.22 1014.42 1014.62 1014.54 1014.38 1014.26 1014.26 1014.42 1014.54 1014.58 1014.62 1014.66 1014.62 1014.46 1014.34 1014.30 1014.26 1014.18 1014.18 1014.18 1014.10 1013.98 1013.90 1013.82 1013.74 1013.58 1013.58 1013.58 1013.30 1012.94 1012.54 1012.22 1011.94 1011.62 1011.30 1011.02 1010.86 1010.66 1010.58 1010.50 1010.38 1009.94 1009.62 1009.46 1009.22 1008.82 1008.42 1007.94 1007.54 1006.98 1006.46 1006.10 1005.54 1005.18 1005.02 1004.62 1004.06 1003.42 1002.74 1002.38 1001.82 1001.14
1013.38 1013.66 1013.98 1014.10 1014.18 1014.14 1014.06 1014.06 1014.02 1014.02 1014.02 1014.02 1013.98 1013.98 1014.10 1014.14 1014.14 1014.10 1014.22 1014.42 1014.46 1014.38 1014.34 1014.38 1014.34 1014.34 1014.26 1014.22 1014.18 1014.18 1014.18 1014.10 1013.98 1013.78 1013.70 1013.66 1013.66 1013.50 1013.50 1013.46 1013.18 1012.90 1012.58 1012.14 1011.82 1011.42 1011.06 1010.74 1010.46 1010.34 1010.22 1010.02 1009.86 1009.70 1009.62 1009.38 1008.74 1008.38 1008.14 1007.66 1007.42 1006.94 1006.38 1005.98 1005.54 1004.82 1004.38 1004.18 1003.66 1002.94 1002.02 1001.34 1001.02 1000.50
1013.18 1013.46 1013.66 1013.78 1013.82 1013.90 1013.98 1013.94 1013.90 1013.82 1013.82 1013.82 1013.82 1013.74 1013.66 1013.74 1013.78 1013.90 1014.02 1014.06 1014.02 1013.98 1014.02 1014.02 1014.06 1014.10 1014.14 1014.22 1014.18 1014.14 1014.06 1013.94 1013.86 1013.70 1013.62 1013.54 1013.46 1013.50 1013.34 1013.22 1012.94 1012.70 1012.50 1012.18 1011.78 1011.34 1010.90 1010.58 1010.26 1010.02 1009.82 1009.58 1009.34 1009.22 1009.18 1009.18 1008.74 1008.18 1007.82 1007.54 1007.26 1006.82 1006.06 1005.66 1005.06 1004.62 1004.34 1004.14 1003.54 1002.50 1001.50 1000.50 1000.02 999.98
1013.02 1013.34 1013.50 1013.58 1013.62 1013.58 1013.62 1013.66 1013.58 1013.46 1013.54 1013.50 1013.46 1013.38 1013.34 1013.34 1013.46 1013.58 1013.58 1013.66 1013.74 1013.82 1013.82 1013.86 1013.90 1013.98 1014.10 1014.10 1014.06 1013.98 1013.90 1013.90 1013.78 1013.58 1013.46 1013.42 1013.38 1013.30 1013.14 1013.02 1012.78 1012.50 1012.26 1011.94 1011.58 1011.18 1010.90 1010.54 1010.26 1010.10 1009.78 1009.54 1009.30 1008.66 1008.50 1008.42 1008.38 1007.98 1007.62 1007.30 1007.02 1006.66 1005.94 1005.30 1004.86 1004.30 1003.94 1003.46 1003.10 1002.38 1001.14 1000.14 999.30 999.02
1012.86 1012.98 1013.14 1013.18 1013.22 1013.26 1013.38 1013.22 1013.10 1013.06 1013.02 1012.94 1012.90 1012.98 1013.18 1013.18 1013.30 1013.30 1013.42 1013.42 1013.46 1013.54 1013.66 1013.74 1013.78 1013.86 1013.90 1013.94 1013.94 1013.90 1013.86 1013.74 1013.62 1013.50 1013.42 1013.34 1013.26 1013.06 1012.90 1012.78 1012.58 1012.26 1012.02 1011.78 1011.46 1011.06 1010.78 1010.50 1010.26 1010.18 1010.02 1009.74 1009.62 1009.30 1008.50 1007.98 1007.98 1007.94 1007.74 1007.22 1006.82 1006.46 1005.82 1005.22 1004.70 1004.22 1003.70 1003.10 1002.62 1002.18 1001.34 1000.34 999.30 998.46
1012.54 1012.62 1012.70 1012.74 1012.66 1012.74 1012.86 1012.78 1012.70 1012.58 1012.50 1012.46 1012.54 1012.54 1012.58 1012.74 1013.06 1013.14 1013.18 1013.34 1013.42 1013.46 1013.54 1013.62 1013.70 1013.74 1013.78 1013.86 1013.86 1013.78 1013.70 1013.58 1013.50 1013.46 1013.38 1013.22 1013.10 1012.94 1012.82 1012.62 1012.38 1012.10 1011.90 1011.58 1011.26 1010.94 1010.66 1010.46 1010.14 1010.02 1009.90 1009.74 1009.70 1009.66 1008.94 1008.02 1007.78 1007.70 1007.70 1007.46 1006.90 1006.46 1005.98 1005.38 1004.74 1004.02 1003.34 1003.02 1002.26 1001.86 1001.30 1000.62 999.54 998.50
1012.22 1012.14 1012.14 1012.10 1012.14 1012.18 1012.18 1012.06 1012.10 1012.26 1012.26 1012.26 1012.34 1012.46 1012.50 1012.74 1013.06 1013.18 1013.26 1013.38 1013.54 1013.62 1013.66 1013.66 1013.62 1013.62 1013.66 1013.62 1013.66 1013.66 1013.62 1013.54 1013.50 1013.42 1013.22 1013.06 1012.98 1012.86 1012.74 1012.54 1012.26 1012.02 1011.78 1011.46 1011.18 1010.82 1010.54 1010.38 1010.14 1009.90 1009.82 1009.74 1009.70 1009.30 1008.82 1007.98 1007.82 1007.34 1007.34 1007.38 1007.14 1006.50 1006.06 1005.58 1004.86 1004.10 1003.10 1002.58 1002.26 1001.54 1001.14 1000.58 999.66 998.70
1011.78 1011.86 1011.98 1012.06 1012.02 1012.02 1012.10 1012.14 1012.14 1012.22 1012.26 1012.26 1012.34 1012.46 1012.66 1012.86 1013.10 1013.30 1013.38 1013.46 1013.46 1013.50 1013.58 1013.58 1013.58 1013.58 1013.50 1013.54 1013.54 1013.58 1013.58 1013.46 1013.34 1013.18 1013.06 1012.94 1012.90 1012.78 1012.54 1012.34 1012.14 1011.82 1011.66 1011.34 1011.02 1010.70 1010.42 1010.22 1009.98 1009.74 1009.54 1009.46 1009.38 1008.98 1008.74 1008.54 1008.06 1007.30 1007.02 1007.02 1006.90 1006.54 1006.02 1005.66 1004.98 1004.10 1003.38 1002.54 1001.74 1001.34 1000.86 1000.22 999.38 998.58
1011.54 1011.62 1011.66 1011.66 1011.78 1011.90 1011.98 1011.98 1012.06 1012.10 1012.18 1012.38 1012.50 1012.58 1012.70 1012.94 1013.10 1013.22 1013.30 1013.30 1013.30 1013.30 1013.38 1013.46 1013.50 1013.46 1013.46 1013.46 1013.50 1013.50 1013.46 1013.30 1013.18 1013.10 1013.02 1012.94 1012.78 1012.58 1012.42 1012.22 1012.02 1011.74 1011.54 1011.26 1010.94 1010.58 1010.38 1010.06 1009.74 1009.46 1009.18 1008.94 1008.70 1008.42 1008.34 1008.18 1007.78 1007.30 1007.02 1006.66 1006.50 1006.42 1006.10 1005.62 1005.06 1004.26 1003.34 1002.78 1002.14 1001.42 1000.54 999.70 998.98 998.10
1011.46 1011.50 1011.46 1011.58 1011.78 1011.82 1011.90 1011.90 1011.94 1012.10 1012.38 1012.54 1012.62 1012.66 1012.70 1012.82 1012.94 1013.06 1013.06 1013.06 1013.10 1013.26 1013.30 1013.34 1013.34 1013.38 1013.50 1013.46 1013.42 1013.38 1013.26 1013.18 1013.10 1013.02 1012.94 1012.82 1012.66 1012.50 1012.26 1012.06 1011.86 1011.58 1011.46 1011.18 1010.86 1010.58 1010.22 1009.78 1009.30 1008.82 1008.62 1008.46 1008.34 1008.26 1008.14 1007.98 1007.70 1007.18 1006.78 1006.30 1006.02 1005.90 1005.62 1005.30 1004.90 1004.34 1003.74 1002.94 1002.50 1001.90 1001.06 1000.22 999.34 998.14
1011.18 1011.26 1011.34 1011.46 1011.54 1011.62 1011.58 1011.78 1011.94 1012.10 1012.26 1012.38 1012.46 1012.54 1012.62 1012.70 1012.78 1012.86 1012.90 1012.98 1013.06 1013.14 1013.22 1013.14 1013.22 1013.38 1013.34 1013.30 1013.26 1013.22 1013.18 1013.18 1013.10 1012.98 1012.86 1012.74 1012.62 1012.42 1012.18 1011.98 1011.78 1011.50 1011.38 1011.10 1010.74 1010.38 1009.86 1009.42 1009.02 1008.74 1008.50 1008.38 1008.38 1008.54 1008.62 1008.30 1007.98 1007.42 1006.82 1006.30 1005.86 1005.54 1005.26 1004.86 1004.46 1004.14 1003.78 1003.34 1002.90 1002.26 1001.30 1000.34 999.74 999.10
1010.98 1011.06 1011.22 1011.22 1011.26 1011.34 1011.46 1011.62 1011.70 1011.90 1012.14 1012.22 1012.34 1012.38 1012.50 1012.58 1012.66 1012.74 1012.86 1012.94 1013.06 1013.14 1013.10 1013.10 1013.14 1013.18 1013.14 1013.06 1013.10 1013.14 1013.10 1013.06 1013.02 1012.90 1012.78 1012.66 1012.54 1012.34 1012.06 1011.82 1011.66 1011.42 1011.18 1010.94 1010.58 1010.22 1009.70 1009.26 1008.94 1008.70 1008.46 1008.42 1008.30 1008.34 1008.42 1008.10 1007.82 1007.46 1006.94 1006.50 1006.02 1005.54 1005.10 1004.66 1004.30 1003.94 1003.58 1003.30 1003.10 1002.78 1002.34 1001.70 1000.82 999.90
1010.70 1010.86 1010.94 1010.98 1011.10 1011.22 1011.42 1011.50 1011.62 1011.70 1011.86 1012.10 1012.26 1012.34 1012.42 1012.54 1012.66 1012.74 1012.78 1012.82 1012.90 1012.98 1012.98 1013.02 1013.02 1012.90 1012.86 1013.02 1013.02 1012.94 1012.98 1012.94 1012.86 1012.86 1012.74 1012.58 1012.34 1012.14 1011.94 1011.74 1011.50 1011.26 1011.06 1010.82 1010.50 1010.02 1009.62 1009.22 1008.90 1008.70 1008.54 1008.34 1008.18 1008.18 1008.18 1007.98 1007.82 1007.50 1007.18 1006.86 1006.34 1005.86 1005.30 1004.66 1004.18 1003.86 1003.50 1003.14 1002.78 1002.30 1001.82 1001.46 1001.18 1000.82
1010.42 1010.62 1010.78 1010.90 1010.98 1011.22 1011.38 1011.42 1011.46 1011.62 1011.82 1011.94 1012.10 1012.22 1012.30 1012.46 1012.58 1012.66 1012.62 1012.70 1012.74 1012.74 1012.78 1012.78 1012.74 1012.82 1012.98 1012.94 1012.90 1012.90 1012.90 1012.86 1012.82 1012.74 1012.58 1012.38 1012.14 1012.02 1011.86 1011.62 1011.42 1011.26 1011.02 1010.70 1010.54 1010.06 1009.58 1009.26 1008.82 1008.62 1008.42 1008.22 1008.10 1008.10 1007.98 1007.90 1007.74 1007.54 1007.26 1007.02 1006.74 1006.34 1005.78 1005.02 1004.42 1003.94 1003.62 1003.18 1002.74 1002.38 1001.94 1001.50 1001.02 1000.46
Wind_Speed
5 4 5 5 5 4 3 3 4 5 5 6 6 5 6 5 3 1 2 2 2 3 0 0 2 1 4 5 5 5 6 7 6 4 6 6 6 9 14 15 15 15 15 15 15 16 16 16 16 15 15 15 15 14 14 14 14 14 14 13 13 12 11 9 10 10 10 10 10 11 11 11 11 11
4 3 3 4 3 3 4 4 3 4 5 5 6 6 5 6 6 5 4 4 3 3 2 2 1 2 2 2 4 4 5 8 8 5 5 6 6 10 13 14 15 15 15 15 15 16 16 16 16 16 16 15 16 15 15 15 14 14 14 14 14 13 12 11 10 11 11 11 11 11 12 12 12 12
5 4 3 3 3 4 4 4 5 4 5 6 5 5 5 5 5 6 5 2 3 3 3 2 1 1 2 2 3 3 4 6 7 6 6 6 9 13 11 13 13 13 14 14 15 15 16 16 17 17 17 17 17 16 17 17 17 16 16 14 14 14 13 13 12 12 12 12 12 12 12 13 13 13
6 5 5 5 5 5 5 5 5 5 5 6 6 6 6 6 6 5 5 5 6 3 3 3 4 4 3 3 3 4 3 5 10 7 7 7 10 8 7 11 12 11 12 14 15 16 16 17 18 18 19 18 18 17 15 17 17 17 18 17 16 15 15 14 13 13 13 13 13 13 14 14 14 14
6 7 6 6 7 6 6 6 6 6 6 6 6 6 6 5 5 6 6 5 6 3 4 4 4 3 3 4 3 5 6 5 4 5 5 6 6 6 6 6 10 12 13 13 14 15 16 17 18 19 19 18 18 18 18 18 18 18 18 18 17 17 17 16 16 13 13 14 14 15 15 15 15 15
6 7 8 7 7 6 7 5 6 6 6 6 6 6 6 6 6 6 6 6 4 6 2 3 3 3 3 4 3 5 6 4 3 4 5 5 6 6 6 6 7 12 13 14 14 14 15 16 17 17 17 17 18 19 19 19 19 19 19 18 18 18 17 17 17 17 17 15 14 15 15 15 16 16
6 7 8 8 6 4 5 5 4 4 4 3 5 5 5 5 6 5 6 4 4 5 5 4 3 3 3 5 5 4 4 4 4 5 5 6 5 5 6 6 6 9 12 13 14 13 14 14 16 16 17 18 18 19 19 19 19 19 18 18 18 18 18 18 18 18 18 17 15 15 16 15 15 16
7 8 7 7 7 5 5 4 4 3 3 3 3 4 4 5 6 5 5 6 5 4 4 2 3 3 3 4 3 3 3 5 5 6 6 5 6 7 6 6 6 8 13 14 14 14 14 14 15 16 16 17 17 18 18 18 18 18 18 18 18 18 19 19 19 19 18 18 18 17 17 17 16 16
9 9 8 7 6 5 5 4 4 3 4 3 3 4 4 5 5 4 4 4 3 3 3 4 2 2 2 3 4 3 5 6 5 4 5 6 7 7 7 6 7 10 14 14 15 14 14 15 16 16 17 17 18 18 18 17 17 17 18 18 18 19 19 19 19 19 19 19 19 19 18 17 18 18
10 9 7 6 6 5 6 5 4 3 4 4 4 5 4 5 4 4 3 3 2 2 3 3 5 3 4 4 4 4 5 6 6 5 5 5 5 5 6 6 6 5 5 4 6 9 10 12 15 15 15 16 17 17 18 18 18 18 18 19 19 20 20 20 20 20 20 20 20 19 19 20 20 19
8 7 6 6 5 5 5 5 4 3 3 5 6 6 6 5 4 5 4 4 4 3 3 4 5 6 5 5 6 5 6 6 5 5 6 7 5 4 6 6 4 4 5 6 9 9 9 11 10 10 12 14 16 17 18 18 19 19 19 19 19 20 20 20 20 20 20 20 19 19 20 19 19 16
6 5 5 5 5 5 4 4 3 3 4 4 4 4 4 5 4 5 5 4 3 3 4 6 6 4 6 4 4 3 2 3 3 4 5 6 6 6 2 3 4 3 3 5 5 6 8 9 10 12 13 14 16 17 16 16 17 19 19 20 20 20 21 21 21 20 19 19 19 19 19 18 18 18
5 5 5 5 4 4 5 6 5 4 3 2 2 0 0 1 2 1 2 3 2 1 2 5 4 4 6 6 5 5 4 4 5 3 1 2 3 4 5 5 4 4 5 5 5 5 6 7 6 6 6 6 8 8 10 10 14 15 16 18 19 20 20 19 19 19 19 19 18 18 19 20 20 20
4 5 5 5 7 5 5 3 5 6 5 4 4 4 3 3 2 1 0 1 2 3 4 5 5 6 7 7 5 5 4 3 2 3 2 3 4 5 5 5 4 4 5 5 5 5 4 5 5 4 5 5 6 6 7 8 10 13 15 16 17 18 18 19 19 19 19 19 19 19 18 18 19 19
6 5 5 4 6 5 5 4 5 5 6 7 7 8 8 6 6 5 5 4 3 3 4 5 5 6 8 8 4 4 5 3 3 2 2 3 3 4 5 8 6 2 3 3 5 8 6 6 8 7 7 8 8 8 9 13 15 16 17 17 16 16 16 17 17 17 16 16 16 17 17 18 19 20
8 8 7 5 4 4 5 5 4 5 7 8 8 9 8 9 8 7 6 5 4 3 5 6 7 6 7 6 5 5 3 5 3 3 2 3 4 5 5 5 7 3 5 9 9 10 6 6 7 8 8 8 8 9 12 15 15 16 17 18 19 19 15 13 13 15 15 16 16 17 17 18 19 20
8 6 6 6 5 4 8 6 4 5 5 7 9 7 8 8 9 9 10 9 8 5 5 6 8 8 6 5 7 6 5 2 3 3 3 3 4 4 5 6 6 7 4 6 8 10 7 5 7 8 8 8 8 9 11 15 16 17 17 17 16 14 14 15 14 13 14 15 15 16 17 18 18 19
9 8 7 7 6 4 4 4 4 4 5 4 3 5 5 6 6 8 10 11 12 9 7 7 8 8 5 8 7 5 3 3 5 4 4 3 4 5 7 7 8 8 5 7 8 9 7 6 7 8 8 7 8 8 10 14 15 16 15 15 14 14 13 13 14 14 14 15 16 16 16 18 19 20
9 8 7 7 7 5 4 5 6 5 5 4 4 4 4 4 5 5 5 5 5 5 7 9 10 10 9 9 8 6 4 4 3 3 4 5 5 6 4 5 6 7 7 8 5 9 6 4 5 6 7 6 8 7 8 10 11 11 11 11 12 12 13 13 15 16 16 16 16 17 18 20 21 22
8 7 6 6 5 5 6 8 10 8 4 4 5 6 6 6 6 6 5 5 5 7 7 8 9 8 6 6 4 2 3 2 3 3 2 2 3 4 5 7 6 6 7 7 7 7 7 2 6 5 4 4 5 6 6 7 10 11 12 13 14 16 16 17 17 17 17 18 19 21 22 22 22 23
6 5 5 6 6 5 6 8 10 10 9 6 7 6 6 5 4 5 4 6 11 14 14 13 10 8 6 6 5 4 4 4 5 3 3 6 5 5 7 8 6 7 5 4 5 5 8 3 4 6 4 4 6 7 6 5 7 11 13 14 15 15 16 17 18 18 19 21 22 23 23 22 22 23
5 7 12 8 6 7 7 10 10 11 9 6 6 5 5 5 5 5 4 4 1 3 4 3 3 3 5 5 6 6 8 11 6 1 6 7 4 6 7 9 8 7 5 6 3 5 4 5 4 7 5 5 3 4 4 7 9 11 11 14 15 17 18 18 19 19 21 22 22 22 22 21 20 17
6 6 9 13 9 8 8 10 9 9 8 6 6 5 5 5 5 1 2 2 3 4 4 3 3 3 5 3 4 5 10 11 8 4 6 6 6 8 8 7 7 7 3 2 5 8 6 8 4 6 9 9 6 3 5 6 7 7 7 8 10 15 17 18 18 19 21 22 22 22 22 21 19 13
5 6 6 7 10 10 9 8 9 10 11 7 5 4 5 4 3 1 2 2 2 3 3 3 3 4 4 5 4 4 4 5 5 7 5 5 5 6 6 6 5 5 3 2 4 4 4 3 6 3 6 8 8 6 6 7 8 8 7 8 8 12 16 16 16 19 20 19 19 19 19 19 19 13
6 5 5 5 7 11 11 9 9 9 9 4 2 3 2 1 1 0 1 3 5 3 3 4 3 4 4 3 3 4 5 5 3 3 2 0 3 4 5 5 5 6 5 5 5 3 4 3 8 6 6 5 7 8 8 9 8 7 8 9 10 10 9 9 9 10 13 17 17 19 19 20 22 18
6 6 7 7 9 12 11 9 7 6 6 3 2 3 4 5 3 1 1 2 3 4 4 3 4 4 5 5 5 5 3 1 1 2 3 3 2 3 5 5 5 5 6 6 9 7 7 6 8 8 8 7 9 8 9 9 10 8 8 8 8 10 10 9 9 10 10 10 10 12 15 19 21 22
7 7 7 8 11 11 9 9 9 9 8 5 4 6 6 6 4 2 2 2 2 3 3 3 5 5 4 5 4 3 2 2 2 3 4 4 4 5 6 5 5 6 7 7 7 7 5 6 7 8 10 9 10 10 9 9 10 8 8 9 9 9 8 8 9 10 10 11 11 17 18 19 21 24
7 7 6 6 9 11 12 11 11 10 10 6 9 8 6 5 4 2 2 2 3 3 3 3 5 5 5 5 4 3 2 2 3 4 4 6 6 7 7 7 7 6 7 7 8 7 6 7 9 9 8 8 9 10 11 10 10 10 10 9 9 9 8 7 9 10 11 11 11 11 11 12 12 13
3 5 10 11 12 12 12 12 10 9 9 8 7 7 6 6 3 3 4 4 3 3 5 5 5 6 7 6 4 3 2 3 3 5 5 5 6 6 6 6 6 6 6 7 7 8 8 8 10 10 8 8 8 9 9 11 10 11 10 11 11 9 8 9 8 9 11 11 12 12 12 12 13 13
9 10 11 11 11 10 9 7 5 5 6 9 10 10 8 4 5 5 5 3 4 6 6 5 6 6 4 3 2 1 1 3 5 4 4 5 6 5 6 6 7 6 7 8 9 9 9 9 9 9 9 8 8 9 9 10 11 10 10 10 12 11 8 5 7 9 10 12 12 12 12 12 13 14
6 7 8 7 8 7 12 8 5 5 5 5 5 5 5 6 6 6 6 6 6 5 6 6 6 5 4 1 1 3 3 5 5 4 4 5 6 5 6 5 7 8 8 8 9 9 9 9 9 7 7 8 8 8 9 8 10 11 10 10 10 11 12 10 9 10 10 11 12 13 13 13 13 14
6 6 5 5 4 4 3 2 2 3 4 4 5 5 6 6 6 7 7 5 3 5 5 5 3 2 0 1 2 3 4 5 6 5 3 3 6 6 5 4 7 7 8 8 7 8 8 7 7 7 7 8 9 9 8 8 10 10 11 10 10 10 10 12 12 11 11 12 12 13 13 13 14 13
5 5 5 4 4 4 3 3 5 5 4 6 6 6 6 6 6 5 3 4 5 5 6 7 6 4 1 2 2 3 4 5 6 4 4 4 6 6 4 6 7 7 8 9 7 7 7 7 7 7 7 7 7 8 8 9 10 9 9 10 9 10 11 10 11 13 13 12 13 14 15 14 12 12
6 6 6 6 5 5 5 5 5 6 6 6 6 7 7 6 6 4 4 5 5 3 4 4 2 1 1 3 3 4 5 6 6 5 4 4 5 4 6 7 7 7 6 7 7 8 7 7 8 7 6 6 6 7 7 8 10 10 9 9 9 11 11 11 12 13 13 11 14 16 15 15 13 9
7 6 6 6 6 6 6 6 7 7 6 7 6 7 6 7 5 4 5 6 5 4 5 3 2 1 2 3 4 5 4 5 5 5 4 4 5 6 6 6 7 7 6 7 7 7 7 8 8 8 7 5 6 5 8 10 7 8 9 9 8 10 12 11 12 13 13 13 11 14 16 15 15 11
6 6 7 7 7 6 7 8 7 7 7 7 8 7 6 6 5 7 7 6 5 4 4 2 1 1 2 3 4 4 3 3 4 6 6 6 6 6 6 6 5 6 6 7 8 8 7 8 8 7 6 6 7 10 10 5 7 6 10 11 9 10 11 12 13 13 12 12 11 12 14 15 16 16
7 7 7 7 6 7 8 6 5 3 4 3 4 5 5 5 6 5 4 4 3 3 2 2 1 1 0 1 1 3 4 5 6 6 6 6 6 5 5 5 5 7 7 7 7 8 6 7 7 6 6 8 8 9 10 8 6 7 7 9 10 10 11 12 13 13 11 11 13 11 12 13 16 16
7 7 5 3 3 1 3 4 5 4 3 3 3 2 3 5 6 4 3 4 3 2 1 1 1 3 2 2 3 5 6 6 5 5 5 5 6 5 5 6 7 7 7 7 7 7 7 6 6 6 6 7 9 9 11 9 8 5 3 5 9 11 10 11 13 14 14 11 11 11 10 13 14 14
5 4 2 2 2 1 3 3 4 4 3 2 2 3 4 6 6 5 5 4 3 3 2 2 1 1 2 3 4 4 6 5 5 5 6 6 4 4 6 7 7 7 6 7 7 7 7 6 7 7 6 6 7 9 8 9 9 10 8 9 7 9 10 11 13 13 13 13 12 11 10 11 15 20
4 3 3 3 1 5 3 4 3 3 2 4 5 3 5 6 5 5 4 3 2 2 2 1 1 2 3 3 4 4 4 3 3 5 5 6 5 6 7 7 7 7 6 7 7 7 7 7 7 8 8 6 7 7 6 7 8 7 7 7 8 7 9 10 11 13 13 12 12 13 13 12 12 10
4 4 4 2 3 4 4 4 3 4 7 6 5 5 5 5 4 3 3 2 1 0 1 1 2 3 3 4 5 4 2 3 4 4 4 5 6 7 8 7 6 6 6 7 7 7 8 8 10 15 10 6 5 4 5 6 9 10 10 9 10 11 13 12 11 12 12 12 12 12 13 12 13 13
6 6 5 5 6 6 6 4 6 7 6 6 5 5 5 4 4 5 2 1 1 1 2 3 3 2 4 5 4 1 3 3 4 5 5 6 7 7 7 6 6 7 7 7 8 8 8 8 9 9 7 5 4 5 6 7 8 9 9 9 9 10 13 15 16 15 13 10 11 12 12 10 9 9
6 6 6 6 5 5 5 6 6 6 6 6 5 4 5 5 4 2 0 1 2 3 4 4 4 4 6 1 2 2 3 4 4 6 6 7 6 6 6 6 6 7 7 7 7 7 8 8 8 8 7 3 2 2 6 7 7 8 10 10 11 10 10 12 13 16 16 13 12 11 10 11 11 10
7 6 5 5 5 4 5 6 6 6 6 5 5 4 5 4 3 2 1 1 2 4 3 6 4 2 1 1 1 3 3 4 5 6 7 6 5 6 6 6 6 7 7 7 8 8 8 8 8 7 6 5 3 3 5 6 7 7 8 9 10 11 12 11 10 11 12 11 15 19 20 18 14 14
6 6 6 4 4 5 6 5 5 5 6 6 6 5 4 4 3 3 1 1 3 3 4 2 1 1 2 2 3 3 4 4 5 6 5 5 6 6 5 6 6 7 7 8 7 8 8 8 8 6 4 5 3 2 4 5 7 7 8 11 12 11 10 11 12 13 12 10 13 19 18 18 18 19
Wind_Direction
216 202 183 179 182 182 135 130 139 148 149 154 148 147 147 154 143 188 251 269 232 295 325 347 300 175 175 184 196 190 206 221 220 207 197 207 212 222 224 227 231 236 239 235 233 235 237 240 242 243 244 245 245 244 244 245 247 250 253 255 256 255 258 255 252 253 253 253 255 259 265 270 274 278
198 195 195 198 189 163 152 177 171 154 163 151 155 155 150 147 162 177 200 253 218 261 290 194 247 330 325 217 210 207 221 225 216 208 210 211 222 226 227 225 226 229 234 237 236 236 237 239 242 244 245 243 243 243 244 247 248 248 249 251 251 251 252 256 257 254 253 251 248 249 256 261 267 270
185 183 162 167 171 163 174 168 177 168 161 164 148 149 149 161 171 181 183 205 278 204 240 285 239 212 247 245 255 258 251 244 230 224 218 222 226 233 242 245 240 233 233 234 236 237 237 238 240 243 245 247 248 247 248 249 251 249 251 250 252 252 252 250 251 252 252 250 249 247 249 255 258 262
182 176 170 180 170 182 173 175 177 183 172 159 157 162 170 177 176 173 178 205 241 251 234 247 280 294 288 303 310 292 267 244 237 230 232 235 237 242 246 253 254 248 233 229 233 236 237 238 239 241 243 245 247 250 248 251 249 249 251 251 251 253 256 258 253 248 250 247 246 245 244 245 249 255
191 193 199 201 196 184 180 189 189 178 176 170 176 179 172 182 182 172 187 204 247 283 244 231 241 244 253 287 259 274 282 289 274 253 246 244 240 239 243 253 261 262 261 255 244 238 237 237 239 242 244 246 248 250 251 252 254 254 253 251 250 251 253 255 258 251 242 244 245 244 244 246 244 247
197 197 203 209 206 191 184 184 186 189 180 176 174 185 179 189 192 186 173 208 222 251 286 265 267 265 212 247 248 248 262 271 275 274 263 249 236 239 241 245 246 248 248 250 253 252 247 243 243 244 246 248 248 248 248 249 249 250 251 251 250 249 249 250 254 257 257 251 247 249 248 245 243 243
192 193 199 201 195 185 183 193 194 196 197 184 177 192 190 194 196 187 185 177 213 238 247 214 241 233 236 222 249 245 244 257 257 261 264 258 251 239 235 238 245 245 246 249 250 249 248 250 250 249 247 247 248 248 247 247 247 247 249 249 251 251 251 250 250 253 256 257 253 250 250 246 243 246
191 191 189 195 189 185 186 191 191 202 198 194 203 209 202 179 181 184 184 194 201 222 259 234 217 232 234 256 244 232 243 248 258 247 255 257 258 257 253 246 247 250 249 251 252 253 252 249 246 246 247 246 246 246 247 247 246 247 247 248 249 250 251 251 251 251 253 255 257 254 252 251 248 245
200 199 194 194 190 184 184 186 190 198 206 201 204 222 220 199 188 183 185 195 199 220 257 278 249 231 253 256 271 263 272 271 254 246 242 247 248 254 250 249 249 252 254 254 253 252 255 256 255 251 249 250 251 252 251 249 249 249 250 250 250 249 249 250 251 251 251 252 253 253 253 253 254 254
205 202 192 187 186 182 184 188 177 177 202 211 217 224 226 218 188 162 164 174 150 148 222 247 284 270 265 279 258 249 236 253 271 273 266 268 261 253 262 248 242 237 233 236 244 253 256 258 258 258 255 254 255 257 259 259 257 254 253 253 253 253 252 251 251 250 250 250 251 253 254 255 255 255
198 189 184 184 178 177 177 169 168 176 209 217 220 212 211 207 179 180 187 188 179 203 256 279 261 269 259 240 267 257 233 239 238 256 285 288 272 250 244 265 265 265 261 252 251 255 259 263 262 255 252 251 253 253 253 253 255 257 257 256 255 255 255 255 255 253 252 252 252 251 251 253 256 258
186 178 181 178 175 169 168 161 172 180 216 226 228 222 201 192 190 194 184 165 176 194 216 232 258 254 268 268 246 266 277 274 284 243 232 258 280 290 271 239 267 274 263 276 282 279 280 278 273 271 268 264 260 256 256 256 255 256 256 255 255 254 253 252 253 254 254 253 252 252 254 255 256 254
172 169 163 158 153 162 165 171 186 201 174 164 172 107 106 205 209 189 143 149 156 193 234 270 262 269 271 260 264 269 254 246 248 246 237 263 275 290 306 297 276 255 278 283 279 275 271 279 276 275 277 277 276 270 261 261 261 259 257 257 258 257 255 253 254 254 254 254 253 251 250 250 250 251
148 149 137 122 141 174 186 197 190 158 155 167 162 161 136 127 113 134 144 193 200 219 245 258 265 270 264 262 249 249 245 243 275 319 360 319 305 314 299 291 273 287 286 291 290 284 287 281 285 297 293 283 278 280 276 269 267 266 261 255 252 252 252 252 253 254 256 254 252 252 253 254 254 254
145 116 112 143 185 174 157 152 167 167 175 184 177 181 183 179 184 200 210 229 212 224 246 252 251 250 263 266 255 252 258 252 248 226 242 264 296 300 304 301 301 299 339 316 297 288 279 291 293 292 284 280 275 269 265 264 264 264 264 263 259 253 250 251 253 255 259 259 258 256 254 252 251 251
136 153 155 174 179 168 166 162 157 175 188 191 201 202 195 199 204 201 202 221 232 223 236 249 248 253 256 276 284 275 276 263 239 240 235 249 265 272 269 264 274 277 327 298 293 286 289 288 282 279 270 268 264 264 263 264 263 263 265 267 270 270 268 264 259 256 252 252 253 253 252 250 248 248
142 151 168 173 175 178 174 161 170 183 204 215 218 213 210 207 192 197 214 212 215 214 228 244 260 252 263 268 262 254 244 196 237 253 258 249 244 244 258 262 277 279 264 280 279 278 278 269 268 262 259 260 264 268 268 265 265 266 267 266 269 275 277 275 270 262 260 258 255 252 251 252 253 254
166 174 178 176 175 171 165 179 196 211 218 223 223 228 233 237 227 209 207 214 222 223 227 234 250 260 240 243 250 241 226 231 244 230 252 254 273 264 259 263 263 271 266 262 279 280 269 244 249 255 258 256 264 260 254 257 261 265 270 279 282 276 274 272 269 265 258 253 251 251 252 253 256 261
174 175 178 175 169 169 190 208 205 211 218 222 231 236 251 255 253 245 238 221 209 211 226 229 238 251 253 251 252 258 238 220 209 196 226 237 246 260 273 286 273 282 275 267 258 271 268 223 254 261 266 263 267 277 281 278 275 277 279 279 279 277 271 267 263 262 262 263 264 267 272 275 276 274
170 167 166 164 165 186 206 222 214 208 201 216 228 234 239 245 247 253 251 253 250 248 236 221 225 240 265 276 261 219 172 207 252 271 283 294 268 278 290 276 280 274 269 246 249 269 283 234 270 297 299 309 302 298 296 291 293 295 297 298 297 295 293 290 286 283 281 280 280 278 276 274 272 270
149 148 157 163 178 198 215 226 211 212 206 213 219 227 239 251 267 270 271 240 241 246 253 264 278 269 238 199 182 189 220 216 221 226 301 288 277 287 286 281 280 273 277 267 244 266 299 341 327 311 294 295 291 291 284 285 290 292 294 294 292 288 285 282 280 278 276 275 274 273 272 272 271 270
147 162 172 180 191 202 219 229 215 208 208 211 218 225 238 250 255 265 271 278 249 200 182 179 196 196 231 255 264 252 250 260 270 222 262 263 280 274 263 272 275 287 296 286 339 349 291 324 326 313 293 283 251 276 290 292 288 287 283 279 276 275 273 273 273 274 274 274 273 273 272 271 271 272
156 179 194 199 196 204 222 228 223 212 204 212 213 217 227 238 251 267 15 350 335 346 359 350 2 351 346 322 297 282 277 268 260 214 235 261 257 264 271 279 298 298 274 263 36 337 319 328 326 345 322 308 297 273 265 271 276 277 276 273 274 269 268 269 269 270 272 272 272 272 271 271 271 271
182 187 198 217 219 214 220 217 214 212 207 212 215 212 222 223 233 118 304 328 338 354 342 318 303 288 287 287 282 282 285 297 288 270 246 244 253 257 268 272 266 272 277 278 347 298 285 270 292 294 275 294 309 306 290 281 272 270 270 275 273 273 272 271 270 269 268 267 267 268 270 271 268 271
179 191 203 210 220 217 212 206 206 209 214 222 216 213 202 182 138 236 320 308 330 310 297 292 285 273 273 284 296 297 289 281 324 20 11 228 201 212 242 262 264 265 263 256 259 277 277 293 294 298 284 260 274 289 286 281 274 272 274 275 276 274 272 269 270 274 275 273 272 270 269 267 265 260
184 199 200 205 212 206 207 193 170 158 153 171 208 202 151 151 184 218 254 279 291 290 282 293 306 312 315 305 309 302 298 343 34 1 330 315 278 238 222 229 256 289 296 296 307 298 294 292 279 284 281 285 282 277 291 290 286 282 276 271 265 267 266 271 274 278 280 281 280 275 273 272 270 266
197 200 199 203 197 198 172 144 146 151 164 178 203 178 178 188 207 249 269 260 277 287 293 290 288 285 285 301 293 285 298 287 310 320 305 305 306 308 304 299 277 274 277 284 283 280 265 264 273 274 278 278 285 289 283 287 292 290 280 275 271 265 260 269 277 280 282 282 280 276 275 270 268 266
199 189 187 164 147 138 142 151 161 169 180 200 193 184 196 196 208 226 248 248 237 249 269 286 283 286 272 241 238 255 231 266 285 300 322 322 309 298 292 285 285 278 277 272 271 264 253 260 274 272 265 273 281 286 289 279 278 285 287 283 273 273 274 268 275 281 282 282 283 281 280 281 275 275
154 138 130 132 137 145 156 166 169 183 208 210 177 189 198 207 209 217 221 229 238 259 253 237 238 246 243 225 238 231 235 283 337 337 311 299 294 287 278 274 273 276 273 276 273 273 269 264 268 272 272 261 261 269 274 280 287 291 292 297 293 284 286 287 280 284 289 287 284 282 281 282 282 277
116 120 127 131 138 145 155 160 185 201 201 205 205 206 202 206 215 210 206 216 226 246 254 258 253 252 255 270 260 242 310 358 307 290 290 296 297 296 295 302 295 280 274 274 276 275 273 268 262 262 262 260 256 269 273 284 288 287 290 288 287 292 271 259 279 285 287 286 282 283 282 279 276 277
108 127 140 159 166 174 184 188 195 207 190 186 209 212 211 215 215 211 204 205 212 234 247 255 264 277 270 288 30 326 331 313 292 270 273 287 279 287 284 283 287 289 277 272 274 275 273 269 262 249 259 273 273 264 272 274 281 287 290 291 297 293 299 298 291 287 285 282 285 284 284 281 278 271
135 134 126 128 156 155 167 246 276 242 216 201 196 208 212 219 221 224 225 222 217 243 248 266 287 287 33 346 294 303 303 281 280 276 276 270 287 281 291 300 285 282 288 287 283 279 275 267 262 266 258 261 274 281 285 280 279 285 288 287 288 286 293 301 301 299 295 297 294 290 287 284 284 284
125 118 134 164 176 182 189 211 226 234 229 237 226 223 215 219 224 230 211 215 230 241 250 253 237 219 207 255 276 291 294 279 269 278 290 279 270 289 278 264 274 288 294 299 299 292 288 283 275 269 270 267 250 261 277 293 289 287 288 289 292 291 296 295 299 301 308 303 296 294 293 287 282 279
153 166 172 190 191 196 200 212 221 223 224 232 233 230 227 218 222 207 190 205 212 190 163 165 147 205 234 272 274 269 261 276 286 290 281 282 288 286 283 286 283 284 287 288 298 300 303 300 301 297 281 265 256 250 255 262 276 285 285 293 293 296 297 302 301 302 303 299 297 299 296 296 291 280
171 177 186 198 206 212 209 217 223 221 216 225 230 236 224 221 203 166 169 170 173 165 163 156 164 189 198 246 254 258 273 287 292 300 295 287 292 282 283 289 294 294 294 302 301 297 301 304 309 309 304 300 303 275 214 223 264 277 295 294 299 299 305 308 307 306 304 301 299 294 300 298 297 299
185 185 194 202 207 209 213 223 224 218 216 217 220 220 225 225 178 169 173 174 147 166 162 164 183 203 237 261 280 286 282 278 298 303 300 299 293 292 295 291 285 293 300 294 292 294 301 301 304 298 298 311 323 319 322 213 210 287 300 302 305 307 307 308 306 303 301 303 302 299 300 306 307 307
190 193 200 208 210 202 211 223 229 225 209 186 153 152 168 155 159 167 174 155 146 143 163 162 196 202 167 343 324 310 310 314 300 295 294 290 291 301 310 306 307 302 302 291 290 296 299 301 303 300 308 318 320 315 299 310 259 232 250 287 305 308 310 309 309 306 307 307 302 303 303 305 303 304
200 196 207 244 258 225 150 119 95 77 74 91 109 97 75 93 112 123 110 88 92 86 81 109 63 67 39 8 341 314 305 292 289 289 287 301 316 316 305 306 306 302 296 294 299 296 297 299 305 307 314 309 313 310 312 314 314 300 256 292 305 308 310 310 312 313 313 312 306 308 307 297 297 302
184 176 179 195 212 120 121 130 111 107 105 95 61 63 94 108 111 103 106 114 113 108 85 53 47 357 356 315 302 293 288 290 303 303 310 312 306 306 314 310 304 299 305 303 303 302 308 307 304 309 299 296 297 297 298 304 300 298 308 309 297 308 315 318 312 311 313 317 318 310 291 282 278 281
194 182 207 217 197 139 150 132 115 126 101 83 86 87 97 107 115 110 108 125 110 91 67 305 297 340 316 301 294 298 284 287 302 313 313 305 308 313 306 299 294 296 308 305 309 308 310 301 303 305 293 271 267 269 280 279 270 277 288 300 306 307 309 314 314 315 318 323 321 321 318 317 321 319
203 200 224 175 165 164 134 143 136 82 81 106 108 110 116 125 125 142 146 130 117 148 283 291 290 280 276 289 288 258 303 328 329 321 313 315 315 309 300 302 306 309 312 307 305 307 301 292 294 302 297 270 286 317 318 318 323 325 326 323 328 327 317 318 319 324 320 324 329 326 323 328 326 326
188 199 203 178 173 176 160 136 109 116 128 125 130 132 137 134 136 137 135 144 181 212 227 255 256 263 287 265 260 360 25 349 335 316 313 311 307 304 303 312 311 311 317 310 307 295 288 293 306 313 298 311 343 347 318 314 315 319 319 322 323 330 330 325 330 333 329 330 338 334 332 325 323 328
188 196 194 197 175 166 136 127 135 133 144 149 141 135 107 106 114 107 107 241 249 244 241 245 263 258 237 262 28 53 22 344 318 309 303 303 298 300 308 309 305 304 306 299 294 290 297 305 311 313 310 327 310 314 307 311 313 315 324 329 330 328 328 331 334 335 332 331 341 343 343 340 340 340
195 188 188 170 161 146 134 141 148 157 154 143 140 133 128 126 125 160 186 233 278 269 230 222 215 204 57 63 51 18 352 312 304 300 300 292 296 307 308 305 313 315 312 307 305 304 305 310 308 310 312 310 293 317 309 319 321 324 329 326 327 333 333 335 336 337 334 337 346 349 349 348 341 325
153 145 143 146 155 145 151 158 157 139 122 132 134 128 130 135 162 189 195 233 251 260 281 246 181 90 95 52 40 343 312 298 300 297 290 307 318 313 307 314 317 316 314 309 312 308 310 309 309 315 300 305 301 296 319 321 317 325 334 339 337 332 332 336 341 343 342 337 346 346 345 344 341 340